Tracking 17855 objects as of 27-September-2016
HD Live streaming from Space Station
objects crossing your sky now

FALCON 9 R/B

Track FALCON 9 R/B now!
10-day predictions


NORAD ID: 37253
Int'l Code: 2010-066K
Perigee: 294.7 km
Apogee: 10,326.1 km
Inclination: 34.5 °
Period: 209.4 minutes
Semi major axis: 11681 km
RCS: 20.0149 m2 (large)
Launch date: December 8, 2010
Source: United States (US)
Launch site: AIR FORCE EASTERN TEST RANGE (AFETR)

Note: This is a ROCKET BODY
Your satellite tracking list
Your tracking list is empty





NASA's NSSDC Master Catalog

Two Line Element Set (TLE):
1 37253U 10066K   16270.46168950  .00004929  00000-0  44633-3 0  9995
2 37253  34.5301  23.9128 4293739 351.6073   3.0493  6.87637398142402
Source of the keplerian elements: AFSPC

N2YO: 1165